Location: Clarion
(42.7316°N, 93.7330°W)
Time: 02:06:36
(UTC+00:00)

MetOp-B - Pass Details

Date: 22 April 2026
Orbit: 818 x 823 km, 98.7° (Epoch: 20 May)

Event Time Altitude Azimuth Distance (km) Brightness Sun altitude
Exits shadow 02:13:44 13° 148° (SSE) 2,187 5.8 -12.5°
Maximum altitude 02:18:22 58° 72° (ENE) 957 4.3 -13.2°
Drops below altitude 10° 02:23:37 10° 354° (N) 2,427 7.1 -14.1°
Sets 02:26:00 0° 351° (N) 3,363 8.0 -14.4°
